TimeCST,TemperatureF,Dew PointF,Humidity,Sea Level PressureIn,VisibilityMPH,Wind Direction,Wind SpeedMPH,Gust SpeedMPH,PrecipitationIn,Events,Conditions,WindDirDegrees,DateUTC
12:15 AM,12.2,10.4,92,29.74,10.0,SSE,5.8,-,N/A,,Clear,150,2013-01-08 06:15:00
12:35 AM,10.4,8.6,92,29.73,10.0,SE,5.8,-,N/A,,Clear,140,2013-01-08 06:35:00
12:55 AM,8.6,6.8,92,29.73,10.0,SE,5.8,-,N/A,,Clear,130,2013-01-08 06:55:00
1:15 AM,6.8,3.2,85,29.72,10.0,SSE,6.9,-,N/A,,Clear,150,2013-01-08 07:15:00
1:35 AM,8.6,6.8,92,29.72,10.0,SSE,10.4,-,N/A,,Clear,160,2013-01-08 07:35:00
1:55 AM,10.4,6.8,85,29.71,10.0,SE,5.8,-,N/A,,Clear,140,2013-01-08 07:55:00
2:15 AM,6.8,5.0,92,29.71,10.0,SE,4.6,-,N/A,,Clear,140,2013-01-08 08:15:00
2:35 AM,10.4,8.6,92,29.70,10.0,SSE,9.2,-,N/A,,Clear,160,2013-01-08 08:35:00
2:55 AM,10.4,8.6,92,29.69,10.0,SSE,9.2,-,N/A,,Clear,150,2013-01-08 08:55:00
3:15 AM,10.4,8.6,92,29.69,10.0,SSE,8.1,-,N/A,,Clear,150,2013-01-08 09:15:00
3:35 AM,12.2,8.6,85,29.68,10.0,SSE,8.1,-,N/A,,Clear,150,2013-01-08 09:35:00
3:55 AM,10.4,8.6,92,29.67,10.0,SSE,10.4,-,N/A,,Clear,160,2013-01-08 09:55:00
4:15 AM,10.4,8.6,92,29.66,10.0,SSE,8.1,-,N/A,,Clear,150,2013-01-08 10:15:00
4:35 AM,12.2,10.4,92,29.65,10.0,South,8.1,-,N/A,,Clear,180,2013-01-08 10:35:00
4:55 AM,14.0,10.4,86,29.63,10.0,SSE,11.5,-,N/A,,Clear,160,2013-01-08 10:55:00
5:15 AM,14.0,10.4,86,29.62,10.0,SSE,12.7,-,N/A,,Clear,150,2013-01-08 11:15:00
5:35 AM,15.8,14.0,93,29.62,10.0,SSE,11.5,-,N/A,,Mostly Cloudy,160,2013-01-08 11:35:00
5:55 AM,17.6,14.0,86,29.61,10.0,SSE,12.7,-,N/A,,Mostly Cloudy,160,2013-01-08 11:55:00
6:15 AM,19.4,15.8,86,29.60,10.0,SSE,11.5,-,N/A,,Partly Cloudy,160,2013-01-08 12:15:00
6:35 AM,19.4,15.8,86,29.58,10.0,SSE,12.7,-,N/A,,Clear,160,2013-01-08 12:35:00
6:55 AM,21.2,17.6,86,29.58,10.0,South,12.7,-,N/A,,Partly Cloudy,170,2013-01-08 12:55:00
7:15 AM,23.0,17.6,80,29.58,10.0,South,12.7,17.3,N/A,,Scattered Clouds,170,2013-01-08 13:15:00
7:35 AM,23.0,17.6,80,29.57,10.0,South,12.7,-,N/A,,Mostly Cloudy,170,2013-01-08 13:35:00
7:55 AM,23.0,19.4,86,29.56,2.5,SSE,12.7,-,N/A,,Mostly Cloudy,160,2013-01-08 13:55:00
8:15 AM,23.0,21.2,93,29.54,1.8,SSE,16.1,20.7,0.02,Snow,Light Snow,160,2013-01-08 14:15:00
8:35 AM,24.8,23.0,93,29.54,1.8,South,16.1,24.2,0.03,Snow,Light Snow,170,2013-01-08 14:35:00
8:55 AM,24.8,23.0,93,29.54,0.5,South,15.0,-,0.03,,Overcast,170,2013-01-08 14:55:00
9:15 AM,24.8,24.8,100,29.53,3.0,South,15.0,21.9,N/A,Rain,Freezing Rain,180,2013-01-08 15:15:00
9:35 AM,26.6,24.8,93,29.54,5.0,South,13.8,21.9,N/A,,Overcast,190,2013-01-08 15:35:00
9:55 AM,26.6,24.8,93,29.54,1.2,South,13.8,20.7,N/A,Rain,Freezing Rain,190,2013-01-08 15:55:00
10:15 AM,28.4,26.6,93,29.53,10.0,SSW,16.1,20.7,N/A,,Overcast,210,2013-01-08 16:15:00
10:35 AM,28.4,26.6,93,29.54,10.0,SSW,17.3,-,N/A,,Overcast,210,2013-01-08 16:35:00
10:55 AM,28.4,26.6,93,29.54,10.0,SW,17.3,-,N/A,,Overcast,220,2013-01-08 16:55:00
11:15 AM,30.2,28.4,93,29.54,10.0,SW,17.3,-,N/A,,Overcast,230,2013-01-08 17:15:00
11:35 AM,32.0,28.4,87,29.54,10.0,WSW,18.4,-,N/A,,Overcast,250,2013-01-08 17:35:00
11:55 AM,32.0,28.4,87,29.54,10.0,WSW,18.4,-,N/A,,Overcast,250,2013-01-08 17:55:00
12:55 PM,32.0,28.4,87,29.54,10.0,West,23.0,-,N/A,,Scattered Clouds,280,2013-01-08 18:55:00
1:15 PM,33.8,28.4,81,29.54,10.0,WNW,28.8,35.7,N/A,,Mostly Cloudy,290,2013-01-08 19:15:00
1:55 PM,32.0,28.4,87,29.55,10.0,West,21.9,-,N/A,,Mostly Cloudy,280,2013-01-08 19:55:00
2:15 PM,33.8,28.4,81,29.54,10.0,West,19.6,-,N/A,,Overcast,270,2013-01-08 20:15:00
2:35 PM,33.8,28.4,81,29.55,10.0,West,23.0,33.4,N/A,,Mostly Cloudy,270,2013-01-08 20:35:00
2:55 PM,32.0,28.4,87,29.56,10.0,West,23.0,29.9,N/A,,Partly Cloudy,280,2013-01-08 20:55:00
3:15 PM,32.0,26.6,80,29.57,10.0,West,24.2,-,N/A,,Clear,270,2013-01-08 21:15:00
3:35 PM,32.0,26.6,80,29.58,10.0,West,24.2,36.8,N/A,,Clear,280,2013-01-08 21:35:00
3:55 PM,32.0,26.6,80,29.60,10.0,West,25.3,34.5,N/A,,Clear,280,2013-01-08 21:55:00
4:15 PM,32.0,26.6,80,29.60,10.0,West,25.3,29.9,N/A,,Clear,280,2013-01-08 22:15:00
4:35 PM,32.0,26.6,80,29.62,10.0,West,20.7,31.1,N/A,,Clear,280,2013-01-08 22:35:00
4:55 PM,30.2,24.8,80,29.62,10.0,West,18.4,-,N/A,,Clear,280,2013-01-08 22:55:00
5:15 PM,28.4,24.8,86,29.64,10.0,West,17.3,-,N/A,,Clear,270,2013-01-08 23:15:00
5:35 PM,28.4,23.0,80,29.64,10.0,West,16.1,-,N/A,,Clear,270,2013-01-08 23:35:00
5:55 PM,28.4,23.0,80,29.64,10.0,West,15.0,-,N/A,,Clear,270,2013-01-08 23:55:00
6:15 PM,28.4,23.0,80,29.64,10.0,West,18.4,-,N/A,,Clear,270,2013-01-09 00:15:00
6:35 PM,28.4,23.0,80,29.65,10.0,West,16.1,23.0,N/A,,Clear,270,2013-01-09 00:35:00
6:55 PM,26.6,21.2,80,29.65,10.0,West,13.8,-,N/A,,Clear,260,2013-01-09 00:55:00
7:15 PM,28.4,23.0,80,29.64,10.0,West,24.2,29.9,N/A,,Mostly Cloudy,270,2013-01-09 01:15:00
7:55 PM,28.4,24.8,86,29.65,10.0,West,23.0,-,N/A,,Scattered Clouds,280,2013-01-09 01:55:00
8:15 PM,28.4,24.8,86,29.65,10.0,West,27.6,32.2,N/A,,Overcast,280,2013-01-09 02:15:00
8:35 PM,28.4,24.8,86,29.65,1.2,WNW,38.0,49.5,N/A,Rain,Freezing Rain,290,2013-01-09 02:35:00
8:55 PM,28.4,24.8,86,29.66,2.5,WNW,32.2,43.7,N/A,Rain,Freezing Rain,300,2013-01-09 02:55:00
9:15 PM,28.4,24.8,86,29.67,3.0,West,33.4,41.4,N/A,Rain,Freezing Rain,280,2013-01-09 03:15:00
9:35 PM,26.6,24.8,93,29.67,1.5,WNW,34.5,44.9,N/A,Rain,Freezing Rain,290,2013-01-09 03:35:00
9:55 PM,26.6,23.0,86,29.69,2.0,West,35.7,43.7,N/A,Rain,Freezing Rain,280,2013-01-09 03:55:00
10:15 PM,26.6,23.0,86,29.70,2.5,WNW,33.4,43.7,N/A,Rain,Freezing Rain,290,2013-01-09 04:15:00
10:35 PM,26.6,23.0,86,29.71,3.0,WNW,33.4,39.1,N/A,,Overcast,290,2013-01-09 04:35:00
11:15 PM,26.6,21.2,80,29.74,4.0,WNW,32.2,41.4,N/A,,Haze,290,2013-01-09 05:15:00
11:55 PM,23.0,19.4,86,29.77,8.0,WNW,29.9,39.1,N/A,,Mostly Cloudy,290,2013-01-09 05:55:00